Regional Weather Roundup
Issued by NWS

Home | Current Version | Previous Version | Text Only | Print | Product List | Glossary On
Versions: 1 2 3 4 5 6 7 8 9 10 11 12 13 14 15 16 17 18 19 20 21 22 23 24 25 26 27 28 29 30 31 32 33 34 35 36 37 38 39 40 41 42 43 44 45 46 47 48 49 50
000
ASUS46 KPQR 311010
RWROR

OREGON REGIONAL WEATHER ROUNDUP
NATIONAL WEATHER SERVICE PORTLAND OR
300 AM PDT THU JUL 31 2014

NOTE: "FAIR" INDICATES FEW OR NO CLOUDS BELOW 12,000 FEET WITH
NO SIGNIFICANT WEATHER AND/OR OBSTRUCTIONS TO VISIBILITY.

ORZ001>013-311100-
NORTHWEST OREGON


CITY           SKY/WX    TMP DP  RH WIND       PRES   REMARKS
ASTORIA        PTCLDY    53  49  86 S7        30.11F
NEWPORT          N/A     46  46 100 CALM      30.11F
PORTLAND       CLEAR     68  52  56 N3        30.05S
VANCOUVER WA   CLEAR     67  50  54 CALM      30.05R
SCAPPOOSE      CLEAR     62  51  67 CALM      30.04S
HILLSBORO      CLEAR     60  32  34 S3        30.05S
AURORA         CLEAR     64  53  67 CALM      30.06S
MCMINNVILLE    CLEAR     62  55  77 W6        30.06S
SALEM          CLEAR     63  55  75 CALM      30.05S
CORVALLIS        N/A     63  54  72 NW8       30.06S
EUGENE         CLEAR     61  55  81 NW6       30.04F
$$

ORZ021-028-311100-
SOUTHWEST OREGON


CITY           SKY/WX    TMP DP  RH WIND       PRES   REMARKS
NORTH BEND     MOCLDY    52  52 100 CALM      30.08F
BROOKINGS      FOG       54  54 100 CALM      30.00S VSB<1/4
ROSEBURG       CLEAR     70  55  59 CALM      30.02F
SEXTON SUMMIT  CLEAR     64  49  57 N10       30.14F
MEDFORD        CLEAR     72  58  61 CALM      30.00S
$$

ORZ009-041-311100-
COLUMBIA GORGE


CITY           SKY/WX    TMP DP  RH WIND       PRES   REMARKS
TROUTDALE      CLEAR     65  55  70 CALM      30.04R
THE DALLES     CLEAR     74  58  57 NW15      29.96S
$$

ORZ029>031-042>050-061>064-311100-
EASTERN OREGON


CITY           SKY/WX    TMP DP  RH WIND       PRES   REMARKS
REDMOND        MOCLDY    64  40  41 CALM      30.11F
BEND           NOT AVBL
KLAMATH FALLS  CLEAR     58  48  69 E5        30.18F
LAKEVIEW       PTCLDY    57  39  51 N9        30.24S
HERMISTON      PTCLDY    66  54  65 CALM      29.96S
PENDLETON      PTCLDY    70  45  40 E7        30.01S
JOHN DAY       MOSUNNY   71  39  31 CALM      30.16F
MEACHAM        PTCLDY    55  49  80 CALM      30.17S
LA GRANDE      CLEAR     63  39  42 CALM      30.10R
BAKER CITY     CLEAR     55  48  77 CALM      30.14S
BURNS          PTCLDY    62  40  44 N7        30.18F
ROME             N/A     70  43  37 N3        30.15S
ONTARIO        CLEAR     64  55  72 NW3       30.09R
$$


USA.gov is the U.S. government's official web portal to all federal, state and local government web resources and services.